• In Belarus
  • List of Countries
  • For 7 days
  • Water Temperature
  • Satellite Maps
  • Weather Map
  • Weather Widgets
  • user-avatar
    Login

    Hourly Weather Krasnyy May

    Today, 22 June, Friday

    Time Temperature Precipitation Wind Pressure Humidity
    00:00 +15°C° 0 mm 2 mps 741 mmHg 93%
    01:00 +16°C° 0 mm 3 mps 741 mmHg 92%
    02:00 +16°C° 0 mm 3 mps 740 mmHg 92%
    03:00 +16°C° 0 mm 3 mps 740 mmHg 87%
    04:00 +17°C° 0 mm 4 mps 740 mmHg 83%
    05:00 +18°C° 0 mm 4 mps 739 mmHg 79%
    06:00 +20°C° 0.1 mm 5 mps 739 mmHg 74%
    07:00 +21°C° 0.1 mm 5 mps 739 mmHg 69%
    08:00 +23°C° 0.1 mm 5 mps 738 mmHg 64%
    09:00 +25°C° 0.2 mm 5 mps 738 mmHg 65%
    10:00 +25°C° 0.2 mm 5 mps 738 mmHg 65%
    11:00 +26°C° 0.2 mm 5 mps 738 mmHg 66%
    12:00 +23°C° 1.1 mm 5 mps 738 mmHg 75%
    13:00 +22°C° 1.1 mm 4 mps 738 mmHg 84%
    14:00 +20°C° 1.1 mm 4 mps 738 mmHg 93%
    15:00 +21°C° 0.2 mm 3 mps 738 mmHg 87%
    16:00 +21°C° 0.2 mm 3 mps 739 mmHg 80%
    17:00 +21°C° 0.2 mm 3 mps 739 mmHg 74%
    18:00 +20°C° 0 mm 2 mps 739 mmHg 76%
    19:00 +19°C° 0 mm 2 mps 740 mmHg 78%
    20:00 +18°C° 0 mm 2 mps 740 mmHg 80%
    21:00 +16°C° 0 mm 2 mps 740 mmHg 82%
    22:00 +15°C° 0 mm 2 mps 741 mmHg 85%
    23:00 +14°C° 0 mm 2 mps 741 mmHg 87%

    Tomorrow, 23 June, Saturday

    Time Temperature Precipitation Wind Pressure Humidity
    00:00 +13°C° 0 mm 2 mps 742 mmHg 86%
    01:00 +12°C° 0 mm 2 mps 742 mmHg 86%
    02:00 +11°C° 0 mm 1 mps 743 mmHg 85%
    03:00 +12°C° 0 mm 1 mps 743 mmHg 83%
    04:00 +12°C° 0 mm 1 mps 743 mmHg 81%
    05:00 +13°C° 0 mm 1 mps 744 mmHg 79%
    06:00 +15°C° 0 mm 1 mps 744 mmHg 71%
    07:00 +18°C° 0 mm 1 mps 744 mmHg 63%
    08:00 +19°C° 0 mm 1 mps 744 mmHg 55%
    09:00 +20°C° 0 mm 1 mps 744 mmHg 54%
    10:00 +20°C° 0 mm 1 mps 744 mmHg 53%
    11:00 +18°C° 0 mm 0 mps 744 mmHg 52%
    12:00 +19°C° 0.3 mm 1 mps 744 mmHg 61%
    13:00 +18°C° 0.3 mm 1 mps 743 mmHg 70%
    14:00 +16°C° 0.3 mm 1 mps 743 mmHg 79%
    15:00 +15°C° 0.2 mm 2 mps 743 mmHg 83%
    16:00 +15°C° 0.2 mm 2 mps 742 mmHg 86%
    17:00 +14°C° 0.2 mm 2 mps 742 mmHg 89%
    18:00 +13°C° 0.7 mm 3 mps 742 mmHg 92%
    19:00 +12°C° 0.7 mm 3 mps 742 mmHg 94%
    20:00 +12°C° 0.7 mm 3 mps 741 mmHg 96%
    21:00 +12°C° 0.8 mm 3 mps 741 mmHg 96%
    22:00 +11°C° 0.8 mm 3 mps 740 mmHg 97%
    23:00 +11°C° 0.8 mm 3 mps 740 mmHg 97%

    Day after tomorrow, 24 June, Sunday

    Time Temperature Precipitation Wind Pressure Humidity
    00:00 +12°C° 2.2 mm 3 mps 740 mmHg 98%
    01:00 +12°C° 2.2 mm 3 mps 739 mmHg 98%
    02:00 +12°C° 2.2 mm 3 mps 739 mmHg 98%
    03:00 +13°C° 1.1 mm 3 mps 738 mmHg 98%
    04:00 +13°C° 1.1 mm 3 mps 738 mmHg 98%
    05:00 +14°C° 1.1 mm 3 mps 738 mmHg 98%
    06:00 +15°C° 0.1 mm 2 mps 738 mmHg 97%
    07:00 +16°C° 0.1 mm 2 mps 738 mmHg 96%
    08:00 +16°C° 0.1 mm 2 mps 738 mmHg 95%
    09:00 +17°C° 0.1 mm 2 mps 738 mmHg 91%
    10:00 +19°C° 0.1 mm 2 mps 738 mmHg 86%
    11:00 +20°C° 0.1 mm 2 mps 738 mmHg 82%
    12:00 +20°C° 0.5 mm 2 mps 738 mmHg 84%
    13:00 +20°C° 0.5 mm 2 mps 738 mmHg 87%
    14:00 +21°C° 0.5 mm 3 mps 738 mmHg 89%
    15:00 +20°C° 0.6 mm 3 mps 738 mmHg 87%
    16:00 +19°C° 0.6 mm 4 mps 738 mmHg 86%
    17:00 +19°C° 0.6 mm 5 mps 739 mmHg 84%
    18:00 +16°C° 0 mm 5 mps 739 mmHg 83%
    19:00 +15°C° 0 mm 5 mps 740 mmHg 82%
    20:00 +13°C° 0 mm 5 mps 740 mmHg 81%
    21:00 +13°C° 0 mm 5 mps 741 mmHg 81%
    22:00 +12°C° 0 mm 4 mps 742 mmHg 81%
    23:00 +12°C° 0 mm 4 mps 742 mmHg 81%

    25 June, Monday

    Time Temperature Precipitation Wind Pressure Humidity
    00:00 +12°C° 0 mm 4 mps 743 mmHg 83%
    01:00 +11°C° 0 mm 4 mps 744 mmHg 84%
    02:00 +11°C° 0 mm 4 mps 744 mmHg 85%
    03:00 +11°C° 0 mm 4 mps 745 mmHg 85%
    04:00 +11°C° 0 mm 4 mps 745 mmHg 85%
    05:00 +11°C° 0 mm 3 mps 746 mmHg 85%
    06:00 +12°C° 0 mm 3 mps 746 mmHg 78%
    07:00 +14°C° 0 mm 3 mps 746 mmHg 72%
    08:00 +16°C° 0 mm 3 mps 747 mmHg 65%
    09:00 +18°C° 0 mm 3 mps 747 mmHg 60%
    10:00 +19°C° 0 mm 3 mps 747 mmHg 55%
    11:00 +20°C° 0 mm 3 mps 747 mmHg 49%
    12:00 +21°C° 0 mm 3 mps 747 mmHg 48%
    13:00 +22°C° 0 mm 3 mps 747 mmHg 46%
    14:00 +22°C° 0 mm 3 mps 747 mmHg 45%
    15:00 +23°C° 0.2 mm 2 mps 747 mmHg 52%
    16:00 +21°C° 0.2 mm 2 mps 747 mmHg 59%
    17:00 +21°C° 0.2 mm 1 mps 747 mmHg 66%
    18:00 +20°C° 0.2 mm 1 mps 747 mmHg 72%
    19:00 +18°C° 0.2 mm 1 mps 748 mmHg 79%
    20:00 +16°C° 0.2 mm 1 mps 748 mmHg 85%
    21:00 +15°C° 0 mm 1 mps 748 mmHg 88%
    22:00 +14°C° 0 mm 1 mps 748 mmHg 91%
    23:00 +13°C° 0 mm 1 mps 748 mmHg 94%

    26 June, Tuesday

    Time Temperature Precipitation Wind Pressure Humidity
    00:00 +12°C° 0 mm 1 mps 748 mmHg 94%
    01:00 +12°C° 0 mm 1 mps 748 mmHg 95%
    02:00 +11°C° 0 mm 1 mps 749 mmHg 95%
    03:00 +12°C° 0 mm 1 mps 749 mmHg 94%
    04:00 +13°C° 0 mm 1 mps 749 mmHg 93%
    05:00 +13°C° 0 mm 1 mps 749 mmHg 92%
    06:00 +15°C° 0 mm 1 mps 749 mmHg 85%
    07:00 +18°C° 0 mm 1 mps 749 mmHg 77%
    08:00 +19°C° 0 mm 2 mps 749 mmHg 69%
    09:00 +20°C° 0.2 mm 2 mps 749 mmHg 64%
    10:00 +21°C° 0.2 mm 2 mps 749 mmHg 60%
    11:00 +22°C° 0.2 mm 3 mps 749 mmHg 56%
    12:00 +22°C° 0.2 mm 3 mps 749 mmHg 53%
    13:00 +24°C° 0.2 mm 3 mps 749 mmHg 51%
    14:00 +24°C° 0.2 mm 3 mps 749 mmHg 48%
    15:00 +24°C° 0.1 mm 3 mps 749 mmHg 51%
    16:00 +23°C° 0.1 mm 2 mps 749 mmHg 54%
    17:00 +23°C° 0.1 mm 2 mps 749 mmHg 57%
    18:00 +20°C° 0.2 mm 2 mps 749 mmHg 65%
    19:00 +20°C° 0.2 mm 1 mps 749 mmHg 74%
    20:00 +18°C° 0.2 mm 1 mps 749 mmHg 83%
    21:00 +16°C° 0 mm 1 mps 749 mmHg 86%
    22:00 +15°C° 0 mm 1 mps 749 mmHg 89%
    23:00 +13°C° 0 mm 1 mps 750 mmHg 93%

    27 June, Wednesday

    Time Temperature Precipitation Wind Pressure Humidity
    00:00 +13°C° 0 mm 1 mps 750 mmHg 93%
    01:00 +13°C° 0 mm 1 mps 750 mmHg 94%
    02:00 +12°C° 0 mm 1 mps 750 mmHg 95%
    03:00 +13°C° 0 mm 1 mps 750 mmHg 93%
    04:00 +14°C° 0 mm 1 mps 750 mmHg 91%
    05:00 +15°C° 0 mm 1 mps 750 mmHg 90%
    06:00 +16°C° 0 mm 1 mps 750 mmHg 81%
    07:00 +19°C° 0 mm 1 mps 751 mmHg 73%
    08:00 +21°C° 0 mm 1 mps 751 mmHg 64%
    09:00 +23°C° 0 mm 2 mps 751 mmHg 58%
    10:00 +24°C° 0 mm 2 mps 750 mmHg 52%
    11:00 +25°C° 0 mm 2 mps 750 mmHg 46%
    12:00 +25°C° 0 mm 2 mps 750 mmHg 47%
    13:00 +25°C° 0 mm 1 mps 750 mmHg 48%
    14:00 +25°C° 0 mm 1 mps 750 mmHg 49%
    15:00 +25°C° 0 mm 1 mps 750 mmHg 51%
    16:00 +25°C° 0 mm 1 mps 750 mmHg 53%
    17:00 +25°C° 0 mm 1 mps 750 mmHg 54%
    18:00 +24°C° 0 mm 1 mps 750 mmHg 61%
    19:00 +22°C° 0 mm 1 mps 750 mmHg 68%
    20:00 +20°C° 0 mm 1 mps 750 mmHg 74%
    21:00 +19°C° 0.1 mm 1 mps 750 mmHg 78%
    22:00 +19°C° 0.1 mm 1 mps 750 mmHg 82%
    23:00 +18°C° 0.1 mm 1 mps 750 mmHg 86%
    Show more